When you browse on this site, cookies collect data to enhance your experience and personalize the content and advertising you see.
Visit our Privacy Policy to learn more. By continuing to use the site, you agree to this use of cookies and data.

Meteo orario Valevka

Oggi, 12 Luglio, Domenica

Tempo Temperatura Precipitazioni Vento Pressione Umidità
00:00 +13°C° 0 mm 3 m/s 746 mm Hg 82%
01:00 +13°C° 0 mm 3 m/s 746 mm Hg 84%
02:00 +13°C° 0 mm 2 m/s 746 mm Hg 90%
03:00 +13°C° 1.1 mm 2 m/s 746 mm Hg 92%
04:00 +12°C° 1.1 mm 2 m/s 746 mm Hg 94%
05:00 +12°C° 1.1 mm 2 m/s 746 mm Hg 95%
06:00 +11°C° 0.3 mm 3 m/s 746 mm Hg 94%
07:00 +12°C° 0.3 mm 3 m/s 746 mm Hg 92%
08:00 +12°C° 0 mm 3 m/s 746 mm Hg 89%
09:00 +12°C° 0.2 mm 3 m/s 746 mm Hg 86%
10:00 +13°C° 0.2 mm 3 m/s 746 mm Hg 83%
11:00 +13°C° 0.2 mm 3 m/s 746 mm Hg 80%
12:00 +14°C° 0.1 mm 3 m/s 746 mm Hg 77%
13:00 +16°C° 0.1 mm 3 m/s 746 mm Hg 73%
14:00 +16°C° 0.1 mm 3 m/s 747 mm Hg 70%
15:00 +17°C° 0 mm 3 m/s 746 mm Hg 70%
16:00 +17°C° 0 mm 3 m/s 746 mm Hg 70%
17:00 +17°C° 0 mm 3 m/s 746 mm Hg 70%
18:00 +16°C° 0.1 mm 3 m/s 746 mm Hg 76%
19:00 +15°C° 0.1 mm 2 m/s 746 mm Hg 81%
20:00 +14°C° 0.1 mm 2 m/s 746 mm Hg 87%
21:00 +13°C° 0 mm 2 m/s 746 mm Hg 89%
22:00 +11°C° 0 mm 3 m/s 745 mm Hg 91%
23:00 +10°C° 0 mm 3 m/s 745 mm Hg 93%

Domani, 13 Luglio, Lunedi

Tempo Temperatura Precipitazioni Vento Pressione Umidità
00:00 +10°C° 0 mm 3 m/s 746 mm Hg 94%
01:00 +9°C° 0 mm 3 m/s 746 mm Hg 94%
02:00 +9°C° 0 mm 3 m/s 746 mm Hg 95%
03:00 +8°C° 0 mm 3 m/s 746 mm Hg 95%
04:00 +8°C° 0 mm 3 m/s 745 mm Hg 96%
05:00 +7°C° 0 mm 3 m/s 745 mm Hg 96%
06:00 +9°C° 0 mm 3 m/s 745 mm Hg 92%
07:00 +11°C° 0 mm 4 m/s 745 mm Hg 87%
08:00 +12°C° 0 mm 4 m/s 745 mm Hg 83%
09:00 +14°C° 0 mm 4 m/s 745 mm Hg 77%
10:00 +15°C° 0 mm 4 m/s 745 mm Hg 72%
11:00 +17°C° 0 mm 4 m/s 745 mm Hg 66%
12:00 +18°C° 0.1 mm 4 m/s 744 mm Hg 65%
13:00 +18°C° 0.1 mm 4 m/s 744 mm Hg 63%
14:00 +19°C° 0.1 mm 4 m/s 744 mm Hg 62%
15:00 +19°C° 0.1 mm 4 m/s 744 mm Hg 63%
16:00 +19°C° 0.1 mm 4 m/s 743 mm Hg 64%
17:00 +19°C° 0.1 mm 4 m/s 743 mm Hg 65%
18:00 +18°C° 0 mm 3 m/s 743 mm Hg 71%
19:00 +16°C° 0 mm 2 m/s 743 mm Hg 76%
20:00 +15°C° 0 mm 2 m/s 743 mm Hg 82%
21:00 +14°C° 0 mm 2 m/s 743 mm Hg 85%
22:00 +13°C° 0 mm 2 m/s 743 mm Hg 87%
23:00 +12°C° 0 mm 2 m/s 743 mm Hg 90%

Dopodomani, 14 Luglio, Martedi

Tempo Temperatura Precipitazioni Vento Pressione Umidità
00:00 +12°C° 0 mm 2 m/s 743 mm Hg 92%
01:00 +10°C° 0 mm 2 m/s 743 mm Hg 94%
02:00 +10°C° 0 mm 3 m/s 743 mm Hg 96%
03:00 +10°C° 0 mm 2 m/s 743 mm Hg 97%
04:00 +10°C° 0 mm 2 m/s 743 mm Hg 97%
05:00 +9°C° 0 mm 2 m/s 743 mm Hg 98%
06:00 +11°C° 0 mm 3 m/s 743 mm Hg 94%
07:00 +13°C° 0 mm 3 m/s 743 mm Hg 90%
08:00 +14°C° 0 mm 3 m/s 743 mm Hg 87%
09:00 +16°C° 0 mm 3 m/s 743 mm Hg 81%
10:00 +18°C° 0 mm 3 m/s 743 mm Hg 76%
11:00 +19°C° 0 mm 3 m/s 742 mm Hg 71%
12:00 +19°C° 0.3 mm 3 m/s 742 mm Hg 71%
13:00 +20°C° 0.3 mm 3 m/s 742 mm Hg 71%
14:00 +20°C° 0.3 mm 4 m/s 742 mm Hg 70%
15:00 +20°C° 0.2 mm 3 m/s 742 mm Hg 71%
16:00 +20°C° 0.2 mm 3 m/s 742 mm Hg 72%
17:00 +20°C° 0.2 mm 3 m/s 741 mm Hg 73%
18:00 +19°C° 0.1 mm 2 m/s 741 mm Hg 78%
19:00 +17°C° 0.1 mm 2 m/s 741 mm Hg 82%
20:00 +16°C° 0.1 mm 2 m/s 741 mm Hg 87%
21:00 +15°C° 0 mm 2 m/s 741 mm Hg 89%
22:00 +14°C° 0 mm 2 m/s 741 mm Hg 90%
23:00 +13°C° 0 mm 2 m/s 741 mm Hg 92%

15 Luglio, Mercoledi

Tempo Temperatura Precipitazioni Vento Pressione Umidità
00:00 +13°C° 0 mm 2 m/s 741 mm Hg 93%
01:00 +13°C° 0 mm 2 m/s 741 mm Hg 93%
02:00 +12°C° 0 mm 2 m/s 741 mm Hg 94%
03:00 +12°C° 0 mm 2 m/s 741 mm Hg 94%
04:00 +12°C° 0 mm 2 m/s 741 mm Hg 95%
05:00 +12°C° 0 mm 2 m/s 741 mm Hg 95%
06:00 +13°C° 0 mm 2 m/s 741 mm Hg 91%
07:00 +15°C° 0 mm 2 m/s 741 mm Hg 87%
08:00 +17°C° 0 mm 2 m/s 741 mm Hg 83%
09:00 +18°C° 0.1 mm 2 m/s 741 mm Hg 78%
10:00 +19°C° 0.1 mm 2 m/s 741 mm Hg 72%
11:00 +20°C° 0.1 mm 2 m/s 741 mm Hg 67%
12:00 +21°C° 0.2 mm 2 m/s 741 mm Hg 64%
13:00 +21°C° 0.2 mm 2 m/s 741 mm Hg 62%
14:00 +23°C° 0.2 mm 2 m/s 741 mm Hg 59%
15:00 +23°C° 0.1 mm 2 m/s 741 mm Hg 62%
16:00 +23°C° 0.1 mm 2 m/s 741 mm Hg 64%
17:00 +21°C° 0.1 mm 2 m/s 741 mm Hg 67%
18:00 +21°C° 0.1 mm 1 m/s 740 mm Hg 72%
19:00 +20°C° 0.1 mm 1 m/s 740 mm Hg 77%
20:00 +18°C° 0.1 mm 1 m/s 740 mm Hg 83%
21:00 +15°C° 0 mm 0 m/s 740 mm Hg 84%
22:00 +14°C° 0 mm 0 m/s 740 mm Hg 85%
23:00 +13°C° 0 mm 0 m/s 740 mm Hg 86%

16 Luglio, Giovedi

Tempo Temperatura Precipitazioni Vento Pressione Umidità
00:00 +13°C° 0 mm 0 m/s 740 mm Hg 87%
01:00 +14°C° 0 mm 1 m/s 740 mm Hg 88%
02:00 +13°C° 0 mm 1 m/s 740 mm Hg 89%
03:00 +13°C° 0 mm 1 m/s 740 mm Hg 90%
04:00 +13°C° 0 mm 1 m/s 740 mm Hg 90%
05:00 +13°C° 0 mm 1 m/s 739 mm Hg 91%
06:00 +15°C° 0 mm 1 m/s 739 mm Hg 87%
07:00 +18°C° 0 mm 1 m/s 739 mm Hg 83%
08:00 +18°C° 0 mm 2 m/s 739 mm Hg 79%
09:00 +20°C° 0.1 mm 2 m/s 739 mm Hg 74%
10:00 +21°C° 0.1 mm 2 m/s 739 mm Hg 69%
11:00 +22°C° 0.1 mm 3 m/s 739 mm Hg 64%
12:00 +22°C° 0.3 mm 3 m/s 738 mm Hg 65%
13:00 +24°C° 0.3 mm 3 m/s 738 mm Hg 65%
14:00 +24°C° 0.3 mm 3 m/s 738 mm Hg 66%
15:00 +22°C° 1.1 mm 3 m/s 738 mm Hg 71%
16:00 +21°C° 1.1 mm 3 m/s 738 mm Hg 76%
17:00 +21°C° 1.1 mm 3 m/s 738 mm Hg 81%
18:00 +19°C° 0.6 mm 3 m/s 738 mm Hg 86%
19:00 +18°C° 0.6 mm 2 m/s 738 mm Hg 91%
20:00 +16°C° 0.6 mm 2 m/s 738 mm Hg 97%
21:00 +16°C° 0.3 mm 2 m/s 738 mm Hg 97%
22:00 +16°C° 0.3 mm 2 m/s 738 mm Hg 97%
23:00 +15°C° 0.3 mm 2 m/s 738 mm Hg 98%

17 Luglio, Venerdi

Tempo Temperatura Precipitazioni Vento Pressione Umidità
00:00 +15°C° 0.1 mm 2 m/s 738 mm Hg 98%
01:00 +15°C° 0.1 mm 1 m/s 738 mm Hg 98%
02:00 +15°C° 0.1 mm 1 m/s 738 mm Hg 98%
03:00 +15°C° 0.4 mm 2 m/s 737 mm Hg 98%
04:00 +15°C° 0.4 mm 2 m/s 737 mm Hg 98%
05:00 +15°C° 0.4 mm 2 m/s 737 mm Hg 98%
06:00 +15°C° 3 mm 2 m/s 737 mm Hg 98%
07:00 +13°C° 3 mm 3 m/s 737 mm Hg 98%
08:00 +13°C° 3 mm 4 m/s 737 mm Hg 97%
09:00 +13°C° 2.2 mm 4 m/s 737 mm Hg 96%
10:00 +13°C° 2.2 mm 4 m/s 737 mm Hg 95%
11:00 +13°C° 2.2 mm 4 m/s 737 mm Hg 95%
12:00 +14°C° 0.2 mm 3 m/s 737 mm Hg 91%
13:00 +16°C° 0.2 mm 2 m/s 738 mm Hg 87%
14:00 +18°C° 0.2 mm 1 m/s 738 mm Hg 84%
15:00 +17°C° 0.5 mm 2 m/s 738 mm Hg 85%
16:00 +17°C° 0.5 mm 2 m/s 738 mm Hg 86%
17:00 +17°C° 0.5 mm 3 m/s 738 mm Hg 87%
18:00 +16°C° 0.3 mm 3 m/s 738 mm Hg 90%
19:00 +16°C° 0.3 mm 3 m/s 738 mm Hg 92%
20:00 +14°C° 0.3 mm 3 m/s 738 mm Hg 95%
21:00 +13°C° 0.1 mm 3 m/s 738 mm Hg 95%
22:00 +13°C° 0.1 mm 3 m/s 738 mm Hg 96%
23:00 +13°C° 0.1 mm 3 m/s 738 mm Hg 97%
Mostrare altro